When you browse on this site, cookies collect data to enhance your experience and personalize the content and advertising you see.
Visit our Privacy Policy to learn more. By continuing to use the site, you agree to this use of cookies and data.
  • în România
  • Lista ţărilor
  • Pe 7 zile
  • Temperatura apei
  • Hartă satelitară
  • Meteo pe hartă
  • Widget-uri
  • user-avatar
    Intrare

    Meteo pe oră la Petraki

    Astăzi, 21 Iulie, Duminică

    Timp Temperatura Precipitaţii Vânt Presiune Umiditate
    00:00 +13°C° 0 mm 1 m/s 743 mmHg 97%
    01:00 +13°C° 0 mm 1 m/s 743 mmHg 98%
    02:00 +13°C° 0 mm 1 m/s 744 mmHg 98%
    03:00 +13°C° 0 mm 1 m/s 744 mmHg 98%
    04:00 +13°C° 0 mm 1 m/s 744 mmHg 98%
    05:00 +13°C° 0 mm 1 m/s 744 mmHg 98%
    06:00 +15°C° 0 mm 1 m/s 744 mmHg 93%
    07:00 +18°C° 0 mm 1 m/s 744 mmHg 88%
    08:00 +19°C° 0 mm 1 m/s 744 mmHg 84%
    09:00 +21°C° 0.1 mm 1 m/s 744 mmHg 76%
    10:00 +22°C° 0.1 mm 1 m/s 745 mmHg 69%
    11:00 +24°C° 0.1 mm 1 m/s 745 mmHg 62%
    12:00 +24°C° 0.4 mm 1 m/s 744 mmHg 61%
    13:00 +24°C° 0.4 mm 1 m/s 744 mmHg 60%
    14:00 +25°C° 0.4 mm 1 m/s 744 mmHg 59%
    15:00 +24°C° 0.6 mm 1 m/s 744 mmHg 66%
    16:00 +23°C° 0.6 mm 1 m/s 744 mmHg 74%
    17:00 +23°C° 0.6 mm 1 m/s 744 mmHg 81%
    18:00 +21°C° 0.2 mm 1 m/s 744 mmHg 84%
    19:00 +20°C° 0.2 mm 1 m/s 743 mmHg 87%
    20:00 +18°C° 0.2 mm 1 m/s 743 mmHg 90%
    21:00 +15°C° 0 mm 0 m/s 743 mmHg 91%
    22:00 +14°C° 0 mm 0 m/s 743 mmHg 92%
    23:00 +14°C° 0 mm 0 m/s 744 mmHg 93%

    Mâine, 22 Iulie, Luni

    Timp Temperatura Precipitaţii Vânt Presiune Umiditate
    00:00 +13°C° 0 mm 0 m/s 743 mmHg 93%
    01:00 +13°C° 0 mm 0 m/s 743 mmHg 93%
    02:00 +13°C° 0 mm 0 m/s 743 mmHg 93%
    03:00 +13°C° 0 mm 0 m/s 743 mmHg 94%
    04:00 +13°C° 0 mm 0 m/s 743 mmHg 94%
    05:00 +13°C° 0 mm 0 m/s 743 mmHg 94%
    06:00 +15°C° 0 mm 0 m/s 743 mmHg 89%
    07:00 +17°C° 0 mm 0 m/s 743 mmHg 84%
    08:00 +21°C° 0 mm 1 m/s 743 mmHg 79%
    09:00 +20°C° 0 mm 0 m/s 743 mmHg 71%
    10:00 +22°C° 0 mm 0 m/s 743 mmHg 63%
    11:00 +24°C° 0 mm 0 m/s 743 mmHg 55%
    12:00 +24°C° 0 mm 0 m/s 742 mmHg 53%
    13:00 +24°C° 0 mm 0 m/s 742 mmHg 51%
    14:00 +24°C° 0 mm 0 m/s 742 mmHg 49%
    15:00 +23°C° 0 mm 0 m/s 742 mmHg 54%
    16:00 +25°C° 0 mm 1 m/s 742 mmHg 59%
    17:00 +24°C° 0 mm 1 m/s 742 mmHg 63%
    18:00 +22°C° 0.1 mm 1 m/s 742 mmHg 72%
    19:00 +20°C° 0.1 mm 1 m/s 741 mmHg 80%
    20:00 +19°C° 0.1 mm 1 m/s 741 mmHg 88%
    21:00 +18°C° 0 mm 1 m/s 741 mmHg 90%
    22:00 +18°C° 0 mm 1 m/s 741 mmHg 91%
    23:00 +16°C° 0 mm 1 m/s 741 mmHg 92%

    Poimâine, 23 Iulie, Marţi

    Timp Temperatura Precipitaţii Vânt Presiune Umiditate
    00:00 +16°C° 0 mm 1 m/s 741 mmHg 93%
    01:00 +15°C° 0 mm 1 m/s 741 mmHg 94%
    02:00 +15°C° 0 mm 1 m/s 741 mmHg 95%
    03:00 +15°C° 0 mm 1 m/s 741 mmHg 94%
    04:00 +15°C° 0 mm 1 m/s 741 mmHg 94%
    05:00 +15°C° 0 mm 1 m/s 741 mmHg 94%
    06:00 +18°C° 0.1 mm 1 m/s 741 mmHg 89%
    07:00 +19°C° 0.1 mm 1 m/s 741 mmHg 83%
    08:00 +21°C° 0.1 mm 1 m/s 741 mmHg 78%
    09:00 +21°C° 0.8 mm 2 m/s 741 mmHg 76%
    10:00 +21°C° 0.8 mm 2 m/s 741 mmHg 75%
    11:00 +22°C° 0.8 mm 3 m/s 741 mmHg 73%
    12:00 +24°C° 0.5 mm 2 m/s 741 mmHg 70%
    13:00 +24°C° 0.5 mm 2 m/s 742 mmHg 66%
    14:00 +25°C° 0.5 mm 2 m/s 742 mmHg 62%
    15:00 +24°C° 0.5 mm 2 m/s 742 mmHg 67%
    16:00 +24°C° 0.5 mm 2 m/s 742 mmHg 72%
    17:00 +23°C° 0.5 mm 1 m/s 742 mmHg 77%
    18:00 +22°C° 0.3 mm 1 m/s 742 mmHg 81%
    19:00 +20°C° 0.3 mm 1 m/s 742 mmHg 85%
    20:00 +18°C° 0.3 mm 1 m/s 742 mmHg 89%
    21:00 +18°C° 0 mm 1 m/s 742 mmHg 90%
    22:00 +16°C° 0 mm 1 m/s 742 mmHg 91%
    23:00 +15°C° 0 mm 1 m/s 742 mmHg 92%

    24 Iulie, Miercuri

    Timp Temperatura Precipitaţii Vânt Presiune Umiditate
    00:00 +15°C° 0 mm 1 m/s 742 mmHg 92%
    01:00 +14°C° 0 mm 1 m/s 742 mmHg 93%
    02:00 +14°C° 0 mm 1 m/s 743 mmHg 94%
    03:00 +14°C° 0 mm 1 m/s 743 mmHg 94%
    04:00 +14°C° 0 mm 1 m/s 743 mmHg 94%
    05:00 +14°C° 0 mm 1 m/s 743 mmHg 94%
    06:00 +16°C° 0 mm 1 m/s 743 mmHg 88%
    07:00 +19°C° 0 mm 1 m/s 743 mmHg 82%
    08:00 +20°C° 0 mm 1 m/s 743 mmHg 76%
    09:00 +21°C° 0 mm 2 m/s 743 mmHg 65%
    10:00 +24°C° 0 mm 2 m/s 744 mmHg 55%
    11:00 +26°C° 0 mm 2 m/s 744 mmHg 45%
    12:00 +26°C° 0 mm 2 m/s 744 mmHg 44%
    13:00 +26°C° 0 mm 2 m/s 744 mmHg 43%
    14:00 +26°C° 0 mm 2 m/s 744 mmHg 42%
    15:00 +26°C° 0 mm 2 m/s 744 mmHg 45%
    16:00 +26°C° 0 mm 2 m/s 744 mmHg 48%
    17:00 +25°C° 0 mm 2 m/s 744 mmHg 52%
    18:00 +23°C° 0 mm 2 m/s 744 mmHg 60%
    19:00 +21°C° 0 mm 1 m/s 744 mmHg 68%
    20:00 +19°C° 0 mm 1 m/s 744 mmHg 76%
    21:00 +16°C° 0 mm 0 m/s 744 mmHg 78%
    22:00 +15°C° 0 mm 0 m/s 744 mmHg 81%
    23:00 +14°C° 0 mm 0 m/s 745 mmHg 83%

    25 Iulie, Joi

    Timp Temperatura Precipitaţii Vânt Presiune Umiditate
    00:00 +14°C° 0 mm 0 m/s 745 mmHg 84%
    01:00 +14°C° 0 mm 0 m/s 745 mmHg 86%
    02:00 +13°C° 0 mm 0 m/s 745 mmHg 87%
    03:00 +13°C° 0 mm 0 m/s 745 mmHg 88%
    04:00 +14°C° 0 mm 0 m/s 745 mmHg 88%
    05:00 +14°C° 0 mm 0 m/s 745 mmHg 88%
    06:00 +16°C° 0 mm 0 m/s 745 mmHg 81%
    07:00 +20°C° 0 mm 1 m/s 745 mmHg 74%
    08:00 +22°C° 0 mm 1 m/s 746 mmHg 67%
    09:00 +23°C° 0 mm 1 m/s 746 mmHg 60%
    10:00 +25°C° 0 mm 1 m/s 746 mmHg 54%
    11:00 +26°C° 0 mm 1 m/s 746 mmHg 48%
    12:00 +26°C° 0 mm 1 m/s 746 mmHg 47%
    13:00 +27°C° 0 mm 2 m/s 746 mmHg 47%
    14:00 +27°C° 0 mm 2 m/s 745 mmHg 47%
    15:00 +27°C° 0 mm 2 m/s 745 mmHg 50%
    16:00 +27°C° 0 mm 2 m/s 745 mmHg 53%
    17:00 +26°C° 0 mm 2 m/s 745 mmHg 55%
    18:00 +24°C° 0 mm 2 m/s 745 mmHg 64%
    19:00 +23°C° 0 mm 2 m/s 745 mmHg 72%
    20:00 +21°C° 0 mm 1 m/s 745 mmHg 80%
    21:00 +20°C° 0 mm 1 m/s 745 mmHg 85%
    22:00 +19°C° 0 mm 1 m/s 746 mmHg 90%
    23:00 +18°C° 0 mm 1 m/s 746 mmHg 95%

    26 Iulie, Vineri

    Timp Temperatura Precipitaţii Vânt Presiune Umiditate
    00:00 +16°C° 0 mm 1 m/s 746 mmHg 96%
    01:00 +16°C° 0 mm 1 m/s 746 mmHg 97%
    02:00 +16°C° 0 mm 1 m/s 746 mmHg 97%
    03:00 +15°C° 0 mm 2 m/s 746 mmHg 95%
    04:00 +15°C° 0 mm 2 m/s 746 mmHg 93%
    05:00 +14°C° 0 mm 2 m/s 746 mmHg 91%
    06:00 +16°C° 0 mm 2 m/s 746 mmHg 81%
    07:00 +18°C° 0 mm 2 m/s 746 mmHg 72%
    08:00 +19°C° 0 mm 3 m/s 746 mmHg 63%
    09:00 +20°C° 0 mm 3 m/s 746 mmHg 58%
    10:00 +22°C° 0 mm 3 m/s 746 mmHg 53%
    11:00 +24°C° 0 mm 3 m/s 746 mmHg 48%
    12:00 +24°C° 0 mm 3 m/s 746 mmHg 48%
    13:00 +25°C° 0 mm 3 m/s 746 mmHg 48%
    14:00 +25°C° 0 mm 3 m/s 745 mmHg 48%
    15:00 +25°C° 0 mm 3 m/s 745 mmHg 51%
    16:00 +24°C° 0 mm 3 m/s 745 mmHg 54%
    17:00 +24°C° 0 mm 3 m/s 745 mmHg 56%
    18:00 +21°C° 0 mm 3 m/s 745 mmHg 64%
    19:00 +19°C° 0 mm 2 m/s 745 mmHg 71%
    20:00 +17°C° 0 mm 2 m/s 745 mmHg 78%
    21:00 +16°C° 0 mm 2 m/s 745 mmHg 80%
    22:00 +15°C° 0 mm 2 m/s 745 mmHg 81%
    23:00 +14°C° 0 mm 1 m/s 745 mmHg 83%
    Arată mai mult